Weather History for TJNR - March, 2013

Change the Weather History Date:

Sunday, March 10, 2013

  Actual Average Record
Temperature  
Mean Temperature 74 °F -  
Max Temperature 78 °F 80 °F 87 °F (2003)
Min Temperature 70 °F 70 °F 68 °F (2012)
Cooling Degree Days 9    
Growing Degree Days 24 (Base 50)    
Moisture  
Dew Point 65 °F    
Average Humidity 79    
Maximum Humidity 87    
Minimum Humidity 66    
Precipitation  
Precipitation 0.00 in - - ()
Sea Level Pressure  
Sea Level Pressure 29.99 in    
Wind  
Wind Speed 6 mph (North)    
Max Wind Speed 15 mph    
Max Gust Speed 21 mph    
Visibility 10 miles    
Events      
Averages and records for this station are not official NWS values.
T = Trace of Precipitation, MM = Missing Value Source: NWS Daily Summary

Daily Weather History Graph

Daily Weather History Graph

Search for Another Location

Airport or City:

Trip Planner

Search our weather history database for the weather conditions in past years. The results will help you decide how hot, cold, wet, or windy it might be!

Date:

Astronomy

Mar. 10, 2013 Rise Set
Actual Time 6:34 AM AST 6:31 PM AST
Civil Twilight 6:12 AM AST 6:52 PM AST
Nautical Twilight 5:47 AM AST 7:18 PM AST
Astronomical Twilight 5:22 AM AST 7:43 PM AST
Moon 5:26 AM AST (3/10) 5:36 PM AST (3/10)
Length of Visible Light 12h 40m
Length of Day
11h 56m
Waning Crescent, 2% of the Moon is Illuminated
Mar 10
Waning Crescent
Mar 11
New
Mar 19
First Quarter
Mar 27
Full
Apr 3
Last Quarter

Hourly Weather History & Observations

Time (AST) Temp. Dew Point Humidity Pressure Visibility Wind Dir Wind Speed Gust Speed Precip Events Conditions
12:53 AM 73.0 °F 66.0 °F 79% 30.01 in 10.0 mi North 3.5 mph - N/A   Overcast
1:53 AM 73.0 °F 66.0 °F 79% 29.99 in 10.0 mi NNW 5.8 mph - N/A   Overcast
2:53 AM 72.0 °F 66.0 °F 81% 29.96 in 10.0 mi NNW 4.6 mph - N/A   Partly Cloudy
3:53 AM 71.1 °F 66.0 °F 84% 29.95 in 10.0 mi Variable 4.6 mph - N/A   Clear
4:53 AM 70.0 °F 66.0 °F 87% 29.96 in 10.0 mi North 4.6 mph - N/A   Clear
5:53 AM 70.0 °F 64.9 °F 84% 29.97 in 10.0 mi East 3.5 mph - N/A   Partly Cloudy
6:53 AM 71.1 °F 64.9 °F 81% 29.98 in 10.0 mi NE 3.5 mph - N/A   Overcast
7:53 AM 73.0 °F 66.0 °F 79% 30.01 in 10.0 mi Calm Calm - N/A   Overcast
8:53 AM 78.1 °F 66.0 °F 66% 30.02 in 10.0 mi NNE 4.6 mph - N/A   Overcast
9:53 AM - - N/A% 30.04 in 10.0 mi NW 8.1 mph - N/A   Partly Cloudy
10:53 AM - - N/A% 30.03 in 10.0 mi North 8.1 mph 17.3 mph N/A   Partly Cloudy
11:53 AM - - N/A% 30.03 in 10.0 mi North 10.4 mph 19.6 mph N/A   Mostly Cloudy
12:53 PM - - N/A% 29.99 in 10.0 mi NNE 12.7 mph - N/A   Clear
1:53 PM - - N/A% 29.98 in 10.0 mi NNE 15.0 mph 20.7 mph N/A   Scattered Clouds
2:53 PM - - N/A% 29.96 in 10.0 mi NE 12.7 mph - N/A   Scattered Clouds
3:53 PM - - N/A% 29.95 in 10.0 mi North 12.7 mph - N/A   Partly Cloudy
4:53 PM - - N/A% 29.96 in 10.0 mi NNE 11.5 mph 18.4 mph N/A   Overcast
5:53 PM - - N/A% 29.97 in 10.0 mi NNE 9.2 mph - N/A   Overcast
6:53 PM - - N/A% 29.99 in 10.0 mi NNE 10.4 mph - N/A   Scattered Clouds
7:53 PM - - N/A% 30.00 in 10.0 mi North 9.2 mph - N/A   Overcast
8:53 PM - - N/A% 30.02 in 10.0 mi North 5.8 mph - N/A   Mostly Cloudy
9:53 PM - - N/A% 30.03 in 10.0 mi North 4.6 mph - N/A   Clear
10:53 PM 70.0 °F 62.1 °F 76% 30.01 in 10.0 mi North 5.8 mph - N/A   Clear
11:53 PM 70.0 °F 62.1 °F 76% 30.01 in 10.0 mi NNW 4.6 mph - N/A   Clear